Stations météo

réclame
Mon MeteoGroup
Aultbea, Grande-Bretagne (3034): Température de l'air & dewpoint: 22.05.2018 06:00:00 - 28.05.2018 06:00:00 (BST)Aultbea, Grande-Bretagne (3034): Température de l'air -20cm & Température de l'air -100cm: 22.05.2018 06:00:00 - 28.05.2018 06:00:00 (BST)Aultbea, Grande-Bretagne (3034): Vitesse du vent & gusts: 22.05.2018 06:00:00 - 28.05.2018 06:00:00 (BST)Aultbea, Grande-Bretagne (3034): Direction du vent: 22.05.2018 06:00:00 - 28.05.2018 06:00:00 (BST)Aultbea, Grande-Bretagne (3034): reduced air pressure: 22.05.2018 06:00:00 - 28.05.2018 06:00:00 (BST)Aultbea, Grande-Bretagne (3034): visibility: 22.05.2018 06:00:00 - 28.05.2018 06:00:00 (BST)Aultbea, Grande-Bretagne (3034): Quantités de précipitations: 22.05.2018 06:00:00 - 28.05.2018 06:00:00 (BST)
Date & Time tt [°C] td [°C] tt -20cm [°C] tt -100cm [°C] ff [km/h] ff [knt] fx [km/h] fx [knt] dd ppp [hPa] vv [km] rr [mm]
28.05.2018 06:00:00 - - - - - - - - - - - -
28.05.2018 05:00:00 - - - - - - - - - - - -
28.05.2018 04:00:00 - - - - - - - - - - - -
28.05.2018 03:00:00 14,7 8,3 - - 13 7 - - SSE 1020,4 50 0,0
28.05.2018 02:00:00 14,0 8,5 - - 5 3 - - SE 1020,2 45 0,0
28.05.2018 01:00:00 14,5 9,2 - - 5 3 - - SE 1020,2 50 0,0
28.05.2018 00:00:00 14,8 9,1 - - 4 2 - - S 1020,2 14 0,0
27.05.2018 23:00:00 16,2 10,1 - - 5 3 - - E 1020,2 40 0,0
27.05.2018 22:00:00 17,2 10,5 - - 5 3 - - ESE 1019,9 40 0,0
27.05.2018 21:00:00 18,6 10,8 - - 5 3 - - E 1019,5 40 0,0
27.05.2018 20:00:00 20,0 11,0 - - 11 6 - - SE 1019,4 24 0,0
27.05.2018 19:00:00 21,0 10,7 - - 15 8 - - SE 1019,5 45 0,0
27.05.2018 18:00:00 22,6 10,8 - - 13 7 - - SE 1019,5 50 0,0
27.05.2018 17:00:00 23,2 10,7 - - 18 10 - - SE 1019,9 35 0,0
27.05.2018 16:00:00 23,2 10,6 - - 21 11 - - SE 1020,4 30 0,0
27.05.2018 15:00:00 24,6 11,0 - - 11 6 - - SSE 1021,1 45 0,0
27.05.2018 14:00:00 22,8 9,8 - - 13 7 - - S 1022,1 50 0,0
27.05.2018 13:00:00 22,5 9,4 - - 15 8 - - SE 1022,5 40 0,0
27.05.2018 12:00:00 21,8 9,0 - - 22 12 - - SSE 1023,2 23 0,0
27.05.2018 11:00:00 21,1 6,9 - - 8 4 - - SSE 1023,6 40 0,0
27.05.2018 10:00:00 18,7 7,2 14,4 11,4 5 3 - - S 1024,2 40 0,0
27.05.2018 09:00:00 17,4 7,2 - - 4 2 - - E 1025,2 45 0,0
27.05.2018 08:00:00 16,3 7,9 - - 5 3 - - ESE 1025,6 29 0,0
27.05.2018 07:00:00 14,3 7,9 - - 8 4 - - ESE 1025,9 30 0,0
27.05.2018 06:00:00 11,8 7,3 - - 8 4 - - E 1025,9 45 0,0
27.05.2018 05:00:00 9,6 6,1 - - 2 1 - - ESE 1026,4 50 0,0
27.05.2018 04:00:00 9,9 5,5 - - 2 1 - - NE 1027,1 35 0,0
27.05.2018 03:00:00 9,6 5,4 - - 2 1 - - N 1027,8 50 0,0
27.05.2018 02:00:00 11,3 6,4 - - 2 1 - - WSW 1028,4 50 0,0
27.05.2018 01:00:00 11,9 5,9 - - 2 1 - - NE 1028,7 50 0,0
27.05.2018 00:00:00 12,5 6,5 - - 2 1 - - ESE 1028,9 50 0,0
26.05.2018 23:00:00 14,6 7,1 - - 8 4 - - SE 1029,0 50 0,0
26.05.2018 22:00:00 17,1 7,6 - - 11 6 - - SE 1029,0 45 0,0
26.05.2018 21:00:00 19,2 7,3 - - 13 7 - - E 1028,7 40 0,0
26.05.2018 20:00:00 21,3 8,0 - - 18 10 - - E 1028,5 50 0,0
26.05.2018 19:00:00 22,0 10,6 - - 11 6 - - E 1028,5 40 0,0
26.05.2018 18:00:00 22,9 10,4 - - 9 5 - - SSW 1028,7 45 0,0
26.05.2018 17:00:00 23,5 9,9 - - 8 4 - - SW 1028,6 35 0,0
26.05.2018 16:00:00 24,2 10,4 - - 9 5 - - SSE 1029,0 30 0,0
26.05.2018 15:00:00 23,4 9,5 - - 11 6 - - S 1029,4 50 0,0
26.05.2018 14:00:00 23,2 11,3 - - 11 6 - - SSE 1029,7 40 0,0
26.05.2018 13:00:00 18,9 10,2 - - 13 7 - - SSW 1029,9 30 0,0
26.05.2018 12:00:00 18,4 10,1 - - 8 4 - - SSW 1030,0 30 0,0
26.05.2018 11:00:00 16,3 9,7 - - 9 5 - - W 1030,5 21 0,0
26.05.2018 10:00:00 14,7 8,8 13,2 11,2 8 4 - - SSW 1030,5 27 0,0
26.05.2018 09:00:00 13,8 9,0 - - 5 3 - - S 1030,6 50 0,0
26.05.2018 08:00:00 12,2 8,9 - - 5 3 - - ESE 1030,4 35 0,0
26.05.2018 07:00:00 10,0 8,7 - - 2 1 - - SE 1030,6 19 -
26.05.2018 06:00:00 7,4 6,5 - - 2 1 - - E 1030,5 24 0,0
26.05.2018 05:00:00 7,3 5,8 - - 5 3 - - ESE 1030,5 19 0,0
26.05.2018 04:00:00 8,2 7,3 - - 4 2 - - NNE 1030,7 40 0,0
26.05.2018 03:00:00 7,6 5,9 - - 2 1 - - E 1030,8 25 0,0
26.05.2018 02:00:00 9,1 6,8 - - 8 4 - - ENE 1030,8 50 0,0
26.05.2018 01:00:00 10,3 7,6 - - 13 7 - - ENE 1030,8 45 0,0
26.05.2018 00:00:00 9,6 7,2 - - 2 1 - - ESE 1030,6 35 0,0
25.05.2018 23:00:00 10,8 8,8 - - 9 5 - - NE 1030,2 30 0,0
25.05.2018 22:00:00 11,3 8,7 - - 9 5 - - E 1029,8 35 0,0
25.05.2018 21:00:00 14,2 9,3 - - 24 13 - - NE 1029,3 45 0,0
25.05.2018 20:00:00 11,9 8,6 - - 34 18 50 27 NNE 1029,1 21 0,0
25.05.2018 19:00:00 12,2 9,0 - - 34 18 46 25 NNE 1029,0 17 0,0
25.05.2018 18:00:00 12,9 8,9 - - 31 17 46 25 NNE 1029,1 35 0,0
25.05.2018 17:00:00 13,0 9,2 - - 31 17 - - N 1029,2 29 0,0
25.05.2018 16:00:00 13,6 9,4 - - 22 12 - - N 1029,5 19 0,0
25.05.2018 15:00:00 13,5 9,3 - - 28 15 - - NNE 1029,4 24 0,0
25.05.2018 14:00:00 12,7 9,0 - - 28 15 46 25 NNE 1029,7 40 0,0
25.05.2018 13:00:00 12,8 9,1 - - 28 15 - - N 1029,9 40 0,0
25.05.2018 12:00:00 12,3 8,9 - - 24 13 - - NNE 1029,8 35 0,0
25.05.2018 11:00:00 11,8 9,0 - - 21 11 - - N 1029,8 30 0,0
25.05.2018 10:00:00 12,7 9,3 13,4 10,7 18 10 - - N 1029,6 35 0,0
25.05.2018 09:00:00 12,1 9,5 - - 13 7 - - N 1029,5 40 0,0
25.05.2018 08:00:00 11,1 9,1 - - 11 6 - - N 1029,3 35 0,0
25.05.2018 07:00:00 10,0 9,0 - - 11 6 - - NNE 1028,9 23 0,0
25.05.2018 06:00:00 10,0 9,3 - - 11 6 - - N 1028,4 21 0,0
25.05.2018 05:00:00 7,6 6,9 - - 5 3 - - N 1027,7 8 0,0
25.05.2018 04:00:00 8,1 6,9 - - 2 1 - - NW 1027,2 21 0,0
25.05.2018 03:00:00 9,7 8,3 - - 5 3 - - N 1027,0 25 0,0
25.05.2018 02:00:00 10,2 9,4 - - 8 4 - - NNW 1026,7 13 0,0
25.05.2018 01:00:00 10,4 9,0 - - 5 3 - - WNW 1026,4 16 0,0
25.05.2018 00:00:00 11,2 9,1 - - 8 4 - - NNE 1026,1 20 0,0
24.05.2018 23:00:00 10,7 8,8 - - 8 4 - - NNE 1026,0 19 0,0
24.05.2018 22:00:00 11,4 8,8 - - 5 3 - - NNW 1025,3 17 0,0
24.05.2018 21:00:00 12,3 8,8 - - 11 6 - - NW 1024,9 16 0,0
24.05.2018 20:00:00 15,0 9,0 - - 9 5 - - NW 1024,3 21 0,0
24.05.2018 19:00:00 14,7 9,0 - - 13 7 - - NW 1023,8 20 0,0
24.05.2018 18:00:00 15,1 9,0 - - 13 7 - - NNW 1023,6 25 0,0
24.05.2018 17:00:00 15,5 9,6 - - 16 9 - - NNW 1023,6 29 0,0
24.05.2018 16:00:00 14,9 9,3 - - 18 10 - - NW 1023,7 19 0,0
24.05.2018 15:00:00 15,9 9,3 - - 18 10 - - NW 1023,7 27 0,0
24.05.2018 14:00:00 18,5 6,9 - - 16 9 - - WSW 1023,6 40 0,0
24.05.2018 13:00:00 19,1 7,9 - - 22 12 - - SW 1023,8 35 0,0
24.05.2018 12:00:00 17,9 9,1 - - 15 8 - - SSW 1024,0 45 0,0
24.05.2018 11:00:00 18,1 9,5 - - 8 4 - - WNW 1024,2 28 0,0
24.05.2018 10:00:00 18,1 9,8 12,2 10,7 4 2 - - SSW 1024,3 19 0,0
24.05.2018 09:00:00 16,2 9,8 - - 9 5 - - SSE 1024,3 35 0,0
24.05.2018 08:00:00 13,8 8,7 - - 8 4 - - SSE 1024,3 45 0,0
24.05.2018 07:00:00 11,2 8,3 - - 16 9 - - SSE 1024,4 30 0,0
24.05.2018 06:00:00 10,3 7,9 - - 13 7 - - SSE 1024,5 50 0,0
24.05.2018 05:00:00 9,0 7,1 - - 4 2 - - SSE 1024,7 50 0,0
24.05.2018 04:00:00 10,0 7,8 - - 13 7 - - SSE 1025,1 50 0,0
24.05.2018 03:00:00 9,4 7,6 - - 2 1 - - S 1025,3 40 0,0
24.05.2018 02:00:00 9,9 7,8 - - 5 3 - - ESE 1025,6 50 0,0
24.05.2018 01:00:00 9,0 7,7 - - 5 3 - - ESE 1025,9 40 0,0
24.05.2018 00:00:00 7,8 6,8 - - 5 3 - - E 1026,0 30 0,0
23.05.2018 23:00:00 8,5 7,4 - - 5 3 - - E 1026,1 24 0,0
23.05.2018 22:00:00 9,3 7,1 - - 2 1 - - NW 1026,3 40 0,0
23.05.2018 21:00:00 11,3 8,8 - - 9 5 - - NW 1026,1 35 0,0
23.05.2018 20:00:00 11,9 9,1 - - 11 6 - - WNW 1026,1 35 0,0
23.05.2018 19:00:00 12,7 9,5 - - 13 7 - - WNW 1026,0 40 0,0
23.05.2018 18:00:00 14,0 8,8 - - 11 6 - - NW 1026,1 35 0,0
23.05.2018 17:00:00 14,0 9,3 - - 11 6 - - WNW 1026,5 35 0,0
23.05.2018 16:00:00 15,9 8,0 - - 11 6 - - WNW 1026,6 35 0,0
23.05.2018 15:00:00 15,2 8,1 - - 11 6 - - WNW 1026,9 40 0,0
23.05.2018 14:00:00 14,9 8,7 - - 15 8 - - WNW 1027,1 28 0,0
23.05.2018 13:00:00 14,5 8,3 - - 11 6 - - WNW 1027,3 45 0,0
23.05.2018 12:00:00 14,0 8,8 - - 9 5 - - WNW 1027,4 50 0,0
23.05.2018 11:00:00 14,7 8,3 - - 5 3 - - SSE 1027,5 35 0,0
23.05.2018 10:00:00 13,0 8,3 11,0 10,7 9 5 - - SE 1027,5 35 0,0
23.05.2018 09:00:00 12,2 8,1 - - 15 8 - - SSE 1027,2 45 0,0
23.05.2018 08:00:00 10,2 6,7 - - 15 8 - - SSE 1027,0 40 0,0
23.05.2018 07:00:00 8,8 6,7 - - 13 7 - - SSE 1026,7 45 0,0
23.05.2018 06:00:00 6,4 5,1 - - 5 3 - - E 1026,3 35 0,0
23.05.2018 05:00:00 5,8 4,7 - - 8 4 - - E 1026,2 45 0,0
23.05.2018 04:00:00 5,8 4,5 - - 4 2 - - E 1026,3 40 0,0
23.05.2018 03:00:00 6,1 4,7 - - 5 3 - - ESE 1026,2 45 0,0
23.05.2018 02:00:00 6,1 4,6 - - 5 3 - - E 1026,2 45 0,0
23.05.2018 01:00:00 6,8 4,8 - - 4 2 - - E 1026,1 45 0,0
23.05.2018 00:00:00 7,9 5,9 - - 8 4 - - ENE 1026,3 50 0,0
22.05.2018 23:00:00 7,3 5,1 - - 8 4 - - ENE 1026,3 45 0,0
22.05.2018 22:00:00 7,9 5,4 - - 8 4 - - ESE 1026,3 50 0,0
22.05.2018 21:00:00 9,9 6,1 - - 11 6 - - SSE 1025,9 50 0,0
22.05.2018 20:00:00 11,3 6,2 - - 13 7 - - SE 1025,6 45 0,0
22.05.2018 19:00:00 12,7 6,6 - - 16 9 - - SE 1025,5 40 0,0
22.05.2018 18:00:00 12,4 6,7 - - 13 7 - - SE 1025,6 45 0,0
22.05.2018 17:00:00 12,6 6,5 - - 9 5 - - SE 1025,8 35 0,0
22.05.2018 16:00:00 11,9 6,7 - - 11 6 - - SSE 1026,1 50 0,0
22.05.2018 15:00:00 11,5 6,1 - - 16 9 - - ENE 1026,3 50 0,0
22.05.2018 14:00:00 11,0 6,2 - - 22 12 - - NE 1026,6 45 0,0
22.05.2018 13:00:00 11,0 5,8 - - 22 12 - - ENE 1026,3 50 0,0
22.05.2018 12:00:00 11,2 5,8 - - 24 13 - - ENE 1026,0 35 0,0
22.05.2018 11:00:00 10,3 4,9 - - 21 11 - - ENE 1026,7 40 0,0
22.05.2018 10:00:00 9,5 5,1 11,0 10,7 24 13 - - E 1026,9 45 0,0
22.05.2018 09:00:00 8,5 4,5 - - 24 13 - - ENE 1027,3 45 0,0
22.05.2018 08:00:00 8,1 4,8 - - 21 11 - - ENE 1027,2 50 0,0
22.05.2018 07:00:00 6,6 4,1 - - 11 6 - - E 1027,0 45 0,0
22.05.2018 06:00:00 6,0 3,9 - - 9 5 - - NE 1027,1 50 0,0

tt = Température de l'air
td = dewpoint
tt -20cm = Température de l'air -20cm
tt -100cm = Température de l'air -100cm
ff = Vitesse du vent
fx = gusts
dd = Direction du vent
ppp = reduced air pressure
vv = visibility
rr = Quantités de précipitations

stations d'obs. à proximité